Weather reports worldwide

Advertisment
Rockport, tx, United States of America (2074832): temperature & dewpoint: 07.12.2019 22:00:00 - 13.12.2019 22:00:00 (CST)Rockport, tx, United States of America (2074832): wind speed & gusts: 07.12.2019 22:00:00 - 13.12.2019 22:00:00 (CST)Rockport, tx, United States of America (2074832): wind direction: 07.12.2019 22:00:00 - 13.12.2019 22:00:00 (CST)Rockport, tx, United States of America (2074832): reduced air pressure: 07.12.2019 22:00:00 - 13.12.2019 22:00:00 (CST)Rockport, tx, United States of America (2074832): visibility: 07.12.2019 22:00:00 - 13.12.2019 22:00:00 (CST)Rockport, tx, United States of America (2074832): precipitation: 07.12.2019 22:00:00 - 13.12.2019 22:00:00 (CST)
Date & Time tt [°C] td [°C] ff [km/h] ff [kn] fx [km/h] fx [kn] dd ppp [hPa] vv [km] rr [mm]
13.12.2019 22:00:00 16,7 9,4 9 5 - - SSW 1011,5 16 -
13.12.2019 21:00:00 16,7 7,8 9 5 - - SW 1011,0 16 -
13.12.2019 20:00:00 16,1 8,9 9 5 - - SW 1010,6 16 -
13.12.2019 19:00:00 17,8 8,9 9 5 - - SW 1010,5 16 -
13.12.2019 18:00:00 21,7 8,3 9 5 - - WSW 1010,2 16 -
13.12.2019 17:00:00 24,4 8,9 13 7 - - WSW 1009,7 16 -
13.12.2019 16:00:00 25,6 11,1 9 5 - - WSW 1010,1 16 -
13.12.2019 15:00:00 25,6 12,2 13 7 - - W 1010,4 16 -
13.12.2019 14:00:00 23,9 12,8 13 7 - - W 1011,4 16 -
13.12.2019 13:00:00 22,8 12,8 16 9 - - W 1012,9 16 -
13.12.2019 12:00:00 21,7 13,9 16 9 - - W 1014,8 15 -
13.12.2019 11:00:00 15,6 13,9 13 7 - - WSW 1015,5 6 -
13.12.2019 10:00:00 15,6 14,4 9 5 - - W 1016,6 0,4 -
13.12.2019 09:00:00 15,6 13,3 9 5 - - W 1016,5 0,4 -
13.12.2019 08:00:00 15,6 13,3 9 5 - - W 1016,1 0,4 -
13.12.2019 07:00:00 15,6 13,9 8 4 - - WNW 1015,8 0,4 -
13.12.2019 06:00:00 15,6 13,9 9 5 - - NW 1015,5 0,4 -
13.12.2019 05:00:00 15,6 13,3 5 3 - - NW 1015,5 0,4 -
13.12.2019 04:00:00 15,0 13,3 8 4 - - NW 1016,3 6 -
13.12.2019 03:00:00 13,9 12,2 0 0 - - N 1016,9 4,8 -
13.12.2019 02:00:00 12,2 10,6 0 0 - - N 1017,0 0,8 -
13.12.2019 01:00:00 13,9 11,7 5 3 - - NNW 1017,7 0,8 -
13.12.2019 00:00:00 15,6 12,8 5 3 - - ENE 1018,2 11 -
12.12.2019 23:00:00 16,7 13,3 8 4 - - N 1018,8 11 -
12.12.2019 22:00:00 16,7 13,9 8 4 - - N 1019,0 11 -
12.12.2019 21:00:00 17,2 14,4 5 3 - - N 1019,3 13 -
12.12.2019 20:00:00 17,8 14,4 9 5 - - NNE 1019,1 13 -
12.12.2019 19:00:00 17,8 14,4 11 6 - - NNE 1019,2 15 -
12.12.2019 18:00:00 17,2 13,9 9 5 - - NE 1019,1 15 -
12.12.2019 17:00:00 18,9 13,9 15 8 - - ENE 1019,4 13 -
12.12.2019 16:00:00 20,6 14,4 13 7 - - ENE 1019,8 15 -
12.12.2019 15:00:00 21,1 14,4 15 8 - - ENE 1020,4 15 -
12.12.2019 14:00:00 20,0 13,3 11 6 - - NE 1021,3 15 -
12.12.2019 13:00:00 21,1 13,9 11 6 - - NE 1022,4 15 -
12.12.2019 12:00:00 20,0 12,2 8 4 - - N 1024,0 15 -
12.12.2019 11:00:00 18,3 10,6 11 6 - - N 1024,7 16 -
12.12.2019 10:00:00 13,3 7,8 11 6 - - N 1025,1 16 -
12.12.2019 09:00:00 12,8 7,2 9 5 - - N 1024,8 16 -
12.12.2019 08:00:00 10,6 6,1 9 5 - - N 1024,8 16 -
12.12.2019 07:00:00 8,9 4,4 9 5 - - N 1024,8 16 -
12.12.2019 06:00:00 9,4 5,0 11 6 - - N 1024,8 16 -
12.12.2019 05:00:00 9,4 5,0 11 6 - - N 1025,2 16 -
12.12.2019 04:00:00 10,0 5,6 13 7 - - N 1025,9 16 -
12.12.2019 03:00:00 10,0 6,1 15 8 - - N 1026,6 16 -
12.12.2019 02:00:00 11,1 6,7 11 6 - - N 1027,3 16 -
12.12.2019 01:00:00 11,7 6,7 11 6 - - NNW 1027,7 16 -
12.12.2019 00:00:00 11,1 7,2 13 7 - - N 1028,3 16 -
11.12.2019 23:00:00 11,7 7,2 11 6 - - NW 1028,9 16 -
11.12.2019 22:00:00 11,7 7,2 11 6 - - WNW 1029,5 16 -
11.12.2019 21:00:00 11,1 7,8 0 0 - - N 1030,0 16 -
11.12.2019 20:00:00 6,7 3,9 8 4 - - WSW 1030,1 13 -
11.12.2019 19:00:00 7,8 3,9 8 4 - - SW 1030,1 15 -
11.12.2019 18:00:00 8,3 4,4 5 3 - - S 1029,3 16 -
11.12.2019 17:00:00 12,2 5,6 8 4 - - E 1029,2 16 -
11.12.2019 16:00:00 13,9 6,1 11 6 - - ENE 1029,7 16 -
11.12.2019 15:00:00 12,2 5,0 15 8 - - NE 1030,2 16 -
11.12.2019 14:00:00 11,7 5,0 11 6 - - N 1030,6 16 -
11.12.2019 13:00:00 10,6 5,6 16 9 - - N 1031,6 16 -
11.12.2019 12:00:00 10,6 5,0 18 10 - - N 1032,8 16 -
11.12.2019 11:00:00 10,0 5,0 21 11 - - NNE 1033,4 15 -
11.12.2019 10:00:00 10,0 5,0 18 10 - - N 1033,5 16 -
11.12.2019 09:00:00 10,0 5,0 16 9 - - NNE 1032,8 16 -
11.12.2019 08:00:00 9,4 5,6 18 10 - - N 1032,2 15 -
11.12.2019 07:00:00 9,4 5,0 18 10 - - N 1031,6 16 -
11.12.2019 06:00:00 9,4 5,0 26 14 - - NNE 1031,0 16 -
11.12.2019 05:00:00 9,4 5,0 21 11 - - N 1030,5 16 -
11.12.2019 04:00:00 9,4 5,0 22 12 - - NNE 1030,2 16 -
11.12.2019 03:00:00 10,0 5,6 24 13 - - NNE 1030,2 16 -
11.12.2019 02:00:00 10,0 5,6 22 12 - - NNE 1029,7 16 -
11.12.2019 01:00:00 10,0 6,1 21 11 - - N 1029,4 16 -
11.12.2019 00:00:00 10,0 6,1 21 11 - - N 1028,9 16 -
10.12.2019 23:00:00 11,1 7,2 26 14 - - N 1028,7 16 -
10.12.2019 22:00:00 11,1 7,2 24 13 - - NNE 1028,1 16 -
10.12.2019 21:00:00 11,1 7,2 28 15 48 26 N 1027,6 16 -
10.12.2019 20:00:00 11,7 7,8 26 14 - - N 1026,9 16 -
10.12.2019 19:00:00 12,2 7,8 28 15 - - N 1025,8 16 -
10.12.2019 18:00:00 12,2 8,3 26 14 - - N 1024,6 16 -
10.12.2019 17:00:00 12,2 8,3 28 15 48 26 N 1023,1 16 -
10.12.2019 16:00:00 11,7 8,9 29 16 50 27 N 1022,1 16 0,0
10.12.2019 15:00:00 11,7 8,9 31 17 50 27 N 1021,3 16 0,0
10.12.2019 14:00:00 11,7 8,3 35 19 50 27 N 1020,6 11 0,0
10.12.2019 13:00:00 11,1 7,8 34 18 57 31 NNE 1020,3 8 0,5
10.12.2019 12:00:00 11,1 7,8 39 21 59 32 N 1020,5 4,8 0,5
10.12.2019 11:00:00 12,2 7,8 29 16 54 29 N 1019,9 16 0,0
10.12.2019 10:00:00 15,0 8,9 26 14 65 35 NNE 1019,2 16 0,0
10.12.2019 09:00:00 15,0 8,9 42 23 59 32 NNE 1016,9 16 0,0
10.12.2019 08:00:00 14,4 8,9 42 23 54 29 NNE 1015,9 15 -
10.12.2019 07:00:00 13,3 8,9 39 21 55 30 N 1015,2 15 0,0
10.12.2019 06:00:00 14,4 9,4 39 21 57 31 N 1013,9 16 -
10.12.2019 05:00:00 15,0 11,7 34 18 - - N 1012,8 16 -
10.12.2019 04:00:00 22,8 20,0 0 0 - - N 1011,8 6 -
10.12.2019 03:00:00 22,8 20,0 5 3 - - SSE 1011,4 4,8 0,0
10.12.2019 02:00:00 22,2 20,0 5 3 - - SE 1011,6 4,0 0,0
10.12.2019 01:00:00 22,2 20,0 5 3 - - ESE 1011,3 4,0 -
10.12.2019 00:00:00 21,7 18,9 5 3 - - ESE 1011,2 4,0 -
09.12.2019 23:00:00 21,7 18,9 11 6 - - SE 1011,0 4,0 -
09.12.2019 22:00:00 22,8 20,0 8 4 - - SSE 1010,8 4,8 -
09.12.2019 21:00:00 23,9 20,0 18 10 - - SSE 1010,1 6 -
09.12.2019 20:00:00 23,9 20,0 18 10 - - SSE 1009,3 6 -
09.12.2019 19:00:00 23,3 19,4 18 10 - - SSE 1009,0 6 -
09.12.2019 18:00:00 23,3 19,4 16 9 - - SSE 1008,7 6 -
09.12.2019 17:00:00 23,9 19,4 15 8 - - SSE 1008,5 6 -
09.12.2019 16:00:00 25,0 19,4 18 10 - - S 1008,3 8 -
09.12.2019 15:00:00 25,6 20,0 21 11 - - S 1008,2 10 -
09.12.2019 14:00:00 25,6 20,0 26 14 - - S 1008,1 10 -
09.12.2019 13:00:00 26,7 20,6 18 10 - - S 1009,5 10 -
09.12.2019 12:00:00 25,0 20,0 21 11 - - S 1011,0 10 -
09.12.2019 11:00:00 25,0 20,6 18 10 - - S 1011,8 8 -
09.12.2019 10:00:00 24,4 20,6 15 8 - - S 1012,0 6 -
09.12.2019 09:00:00 23,9 20,6 18 10 - - S 1011,2 6 -
09.12.2019 08:00:00 22,8 20,0 15 8 - - S 1011,3 4,8 -
09.12.2019 07:00:00 22,2 19,4 9 5 - - - 1010,8 6 -
09.12.2019 06:00:00 22,2 19,4 15 8 - - S 1010,5 6 -
09.12.2019 05:00:00 21,7 19,4 11 6 - - S 1010,3 6 -
09.12.2019 04:00:00 21,7 19,4 13 7 - - S 1010,6 6 -
09.12.2019 03:00:00 22,2 19,4 13 7 - - S 1011,0 6 -
09.12.2019 02:00:00 22,2 19,4 11 6 - - S 1011,8 6 -
09.12.2019 01:00:00 22,2 19,4 9 5 - - S 1012,0 6 -
09.12.2019 00:00:00 22,2 18,9 13 7 - - S 1012,5 8 -
08.12.2019 23:00:00 22,2 19,4 13 7 - - S 1013,0 10 -
08.12.2019 22:00:00 21,7 18,3 13 7 - - S 1012,9 10 -
08.12.2019 21:00:00 21,7 18,3 9 5 - - S 1013,0 13 -
08.12.2019 20:00:00 22,2 18,3 13 7 - - SSE 1013,3 15 -
08.12.2019 19:00:00 20,6 17,8 9 5 - - SSE 1013,5 10 -
08.12.2019 18:00:00 20,6 16,7 9 5 - - SE 1013,6 11 -
08.12.2019 17:00:00 22,2 16,7 9 5 - - SSE 1013,6 11 -
08.12.2019 16:00:00 24,4 17,2 13 7 - - SSE 1013,9 13 -
08.12.2019 15:00:00 24,4 16,7 15 8 - - SSE 1014,6 13 -
08.12.2019 14:00:00 25,0 16,1 21 11 - - SSE 1014,8 13 -
08.12.2019 13:00:00 25,0 16,1 13 7 - - S 1016,2 13 -
08.12.2019 12:00:00 25,6 16,1 11 6 - - SSE 1017,5 13 -
08.12.2019 11:00:00 23,9 16,1 11 6 - - - 1018,6 13 -
08.12.2019 10:00:00 21,7 16,7 8 4 - - ESE 1019,1 13 -
08.12.2019 09:00:00 20,6 17,8 5 3 - - E 1018,7 10 -
08.12.2019 08:00:00 18,3 16,1 8 4 - - ESE 1018,0 6 -
08.12.2019 07:00:00 15,6 13,3 8 4 - - ESE 1018,0 4,8 -
08.12.2019 06:00:00 13,9 12,2 9 5 - - E 1018,3 6 -
08.12.2019 05:00:00 14,4 12,2 5 3 - - NE 1018,6 6 -
08.12.2019 04:00:00 13,3 11,7 8 4 - - NE 1018,8 4,8 -
08.12.2019 03:00:00 13,3 11,7 0 0 - - N 1019,3 8 -
08.12.2019 02:00:00 13,9 11,7 5 3 - - ESE 1020,0 11 -
08.12.2019 01:00:00 12,8 11,1 5 3 - - ESE 1020,6 11 -
08.12.2019 00:00:00 14,4 12,2 8 4 - - SE 1021,2 11 -
07.12.2019 23:00:00 15,0 12,2 8 4 - - SSE 1021,7 11 -
07.12.2019 22:00:00 16,1 12,8 9 5 - - SSE 1021,7 13 -

tt = temperature
td = dewpoint
ff = wind speed
fx = gusts
dd = wind direction
ppp = reduced air pressure
vv = visibility
rr = precipitation

Next stations